Other Public Products
Issued by NWS Grand Forks, ND

Home | Current Version | Previous Version | Graphics & Text | Print | Product List | Glossary On
Versions: 1 2 3 4 5 6 7 8 9 10 11 12 13 14 15 16 17 18 19 20 21 22 23 24 25 26 27 28 29 30 31 32 33 34 35 36 37 38 39 40 41 42 43 44 45 46 47 48 49 50
695
FPUS83 KFGF 280810
OPUFGF
PRAIRIE TO PINES WEATHER ROUNDUP
NATIONAL WEATHER SERVICE EASTERN NORTH DAKOTA/GRAND FORKS ND
300 AM CDT THU JUL 28 2016

 **SATELLITE DATA USED TO AUGMENT SKY COVER AT AUTOMATED STATIONS**
 *****  WEATHER ACROSS EASTERN NORTH DAKOTA  *****

CITY           SKY/WX    TMP DP  RH WIND       PRES   REMARKS
GRAND FORKS    CLOUDY    62  57  83 N10       30.09S
GRAND FORKS AF MOCLDY    60  56  87 N8        30.10F
GRAND CITY NWS   N/A     59 N/A N/A N6          N/A
BUXTON           N/A     61  61  98 N5          N/A
DEVILS LAKE    PTCLDY    56  54  93 NE6       30.16S
FARGO          CLOUDY    63  59  87 N3        30.06S
WAHPETON ARPT  CLOUDY    61  59  94 N5        30.05F
$$

 *****  WEATHER ACROSS CENTRAL AND WESTERN NORTH DAKOTA  *****

CITY           SKY/WX    TMP DP  RH WIND       PRES   REMARKS
JAMESTOWN      PTCLDY    58  56  93 N5        30.12S
BISMARCK       LGT RAIN  64  61  90 NE3       30.13F
MINOT          CLOUDY    63  57  81 NE3       30.15S
MINOT AFB      CLOUDY    60  55  84 E6        30.15S
GARRISON         N/A     62  59  90 E5        30.15S
WILLISTON      CLOUDY    65  60  84 CALM      30.16S
DICKINSON      CLEAR     57  56  96 NE5       30.12S
HETTINGER      CLEAR     59  56  89 E9        30.13R
$$

 *****  OTHER OBSERVATIONS NORTHEAST NORTH DAKOTA  *****

CITY           SKY/WX    TMP DP  RH WIND       PRES   REMARKS
WALHALLA       NOT AVBL
LANGDON        FAIR      52  52 100 NW3       30.16S
CAVALIER       FAIR      57  55  94 NW5       30.14R
GRAFTON        CLOUDY    61  57  88 N7        30.14S
CANDO          NOT AVBL
FORT TOTTEN    NOT AVBL
ROLLA          FAIR      50  50 100 NW5       30.19S
RUGBY          NOT AVBL
 ***** THE ABOVE OBSERVATIONS ARE NON NWS ARE NOT QUALITY
        CONTROLLED AND MAY MIS-REPORT RAIN FOR SNOW...
$$

 *****  OTHER OBSERVATIONS SOUTHEAST NORTH DAKOTA *****

CITY           SKY/WX    TMP DP  RH WIND       PRES   REMARKS
COOPERSTOWN    NOT AVBL
VALLEY CITY    CLOUDY    59  59 100 NW7       30.13S
OAKES            N/A    N/A N/A N/A MISG        N/A
GWINNER        FAIR      61  57  88 N9        30.08F
SHEYENNE NWR     N/A     63  57  81 N6        29.95
BUFFALO          N/A     60  56  88 N8          N/A
WYNDMERE       NOT AVBL
 ***** THE ABOVE OBSERVATIONS ARE NON NWS ARE NOT QUALITY
       CONTROLLED AND MAY MIS-REPORT RAIN FOR SNOW...
$$

  *****  WEATHER ACROSS NORTHERN MINNESOTA  *****

CITY           SKY/WX    TMP DP  RH WIND       PRES   REMARKS
FLAG ISLAND    CLEAR     61  54  77 E3        30.12S
WARROAD        CLEAR     61  57  88 NE7       30.12F
ROSEAU         CLEAR     55  52  88 NE5       30.11F
HALLOCK        CLEAR     57  54  88 NE5       30.11S
THF RVR FALLS  PTCLDY    61  56  83 NE10      30.11S
HALSTAD          N/A     61  61  99 N3          N/A
FOSSTON        MOCLDY    61  57  88 N6        30.09S
BAUDETTE       CLEAR     57  53  86 NE6       30.11F
WASKISH        CLEAR     57  55  94 NE7       30.09F
CROOKSTON      CLOUDY    61  57  88 NE3       30.09F
$$
  *****  WEATHER ACROSS CENTRAL AND WEST MINNESOTA  *****

CITY           SKY/WX    TMP DP  RH WIND       PRES   REMARKS
BEMIDJI        PTCLDY    61  55  82 N3        30.09S
PARK RAPIDS    PTCLDY    63  61  93 N6        30.07S
WADENA         PTCLDY    61  57  88 N3        30.05F
DETROIT LAKES  PTCLDY    63  61  94 CALM      30.08S
MOORHEAD       CLOUDY    61  59  94 N3        30.07S
FERGUS FALLS   CLOUDY    64  64 100 CALM      30.06S
ELBOW LAKE     PTSUNNY   64  63  97 CALM      30.05S
MORRIS MN      CLOUDY    61  61 100 N3        30.04S
STAPLES        PTCLDY    61  61 100 CALM      30.05F
WHEATON        CLOUDY    63  61  94 N3        30.06F
$$
  *****  WEATHER ELSEWHERE ACROSS MINNESOTA  *****

CITY           SKY/WX    TMP DP  RH WIND       PRES   REMARKS
DULUTH         MOCLDY    60  56  86 N3        30.07R
INTRNTL FALLS  CLEAR     60  53  77 NE6       30.10S
ELY            CLEAR     52  50  93 CALM      30.08S FOG
CLOQUET        CLOUDY    57  55  94 CALM      30.06F
BRAINERD       CLOUDY    62  61  96 CALM      30.06S
HIBBING        FOG       51  51 100 NW3       30.08S VSB 1/2
ALEXANDRIA     CLOUDY    63  61  93 NE6       30.06S
SAINT CLOUD    CLOUDY    61  60  97 NE5       30.04R
MINNEAPOLIS    CLOUDY    66  62  87 N10       29.98F
$$

  *****  WEATHER ACROSS SOUTH DAKOTA  *****

CITY           SKY/WX    TMP DP  RH WIND       PRES   REMARKS
SIOUX FALLS    CLOUDY    63  58  83 N3        30.04S
BROOKINGS      CLOUDY    61  58  90 N6        30.05F
WATERTOWN      CLOUDY    62  57  83 N6        30.06F
HURON          MOCLDY    63  59  87 NW6       30.06S
SISSETON         N/A     62  58  86 NW8       30.05F
ABERDEEN       CLOUDY    63  59  87 N7        30.09F
MITCHELL       PTCLDY    65  62  90 NW5       30.06R
PIERRE         CLEAR     61  60  97 E3        30.07F
MOBRIDGE       CLEAR     65  58  78 E10       30.08F
RAPID CITY     PTCLDY    61  57  87 SW5       30.12F
$$

  *****  SOME WEATHER IN NEARBY STATES *****

CITY           SKY/WX    TMP DP  RH WIND       PRES   REMARKS
GLASGOW MT     CLOUDY    60  57  89 NE7       30.16S
GREAT FALLS MT CLOUDY    59  50  72 SW3       30.22S
CHEYENNE WY    CLEAR     60  54  80 S9        30.24F
SCOTTSBLUFF NE CLEAR     63  59  87 E8        30.14F
OMAHA NE       PTCLDY    72  68  87 N5        29.98R
DES MOINES IA  PTCLDY    72  69  90 NW5       29.93S
DAVENPORT IA   CLEAR     68  66  93 CALM      29.90F
CHICAGO IL     PTCLDY    74  64  71 SW3       29.90F
EAU CLAIRE WI  CLOUDY    65  65 100 N6        29.96S
LA CROSSE WI   CLOUDY    70  67  90 N7        29.90F
$$

  *****  SOME NATIONAL WEATHER *****

CITY           SKY/WX    TMP DP  RH WIND       PRES   REMARKS
LA GUARDIA NY  PTCLDY    80  73  79 CALM      29.89F
RALEIGH NC     CLEAR     75  72  90 CALM      29.93F
ATLANTA GA     CLEAR     77  69  76 W10       30.04F
NEW ORLEANS LA PTCLDY    79  75  87 CALM      30.01F
OKLAHOMA CITY  PTCLDY    74  72  93 S3        29.95S
ALBUQUERQUE NM PTCLDY    76  52  43 CALM      30.22R
SALT LAKE CITY CLEAR     79  34  19 S9        30.02S
LOS ANGELES CA PTCLDY    70  64  81 W5        29.90S
BOISE ID       CLEAR     73  47  39 S5        29.99R
SEATTLE WA     CLEAR     72  59  63 NE7       30.12S
$$

*** WEATHER ACROSS MANITOBA...SASKATCHEWAN AND ONTARIO ***
                ***ONTARIO***

CITY           SKY/WX    TMP DP  RH WIND       PRES   REMARKS
GERALDTON      CLEAR     48  46  93 CALM      30.09R
THUNDER BAY    CLEAR     52  50  93 SW3       30.07R
SIOUX LOOKOUT  CLEAR     54  50  87 NE2       30.13S
TORONTO        MOCLDY    73  63  68 NE6       29.89F
BIG TROUT LK   NOT AVBL
PICKLE LAKE    NOT AVBL
DRYDEN         CLEAR     54  50  87 NE7       30.13F
KENORA         PTCLDY    54  52  94 N5        30.14F
$$
                *** MANITOBA***

CITY           SKY/WX    TMP DP  RH WIND       PRES   REMARKS
BRANDON        PTCLDY    48  46  93 N3        30.17S
DAUPHIN        CLEAR     48  46  93 W7        30.15F
ISLAND LAKE    PTCLDY    59  50  72 S7        30.12S
PILOT MOUND      N/A     50  48  93 N1          N/A
THE PAS        CLOUDY    64  61  88 SW6       30.07F
THOMPSON       MOCLDY    57  52  82 CALM      30.05F
WINNIPEG       CLEAR     48  48 100 N3        30.15S
LYNN LAKE      CLEAR     55  54  94 MISG      30.04S
CHURCHILL      PTCLDY    57  52  82 S8        30.00S
GILLAM         CLEAR     55  46  71 SW7       30.06F
$$
                ***SASKATCHEWAN***

CITY           SKY/WX    TMP DP  RH WIND       PRES   REMARKS
ESTEVAN        MOCLDY    55  54  94 E5        30.18S
KINDERSLEY     PTCLDY    57  54  88 S7        30.16F
LLOYDMINSTER   PTCLDY    59  57  94 W7        30.12S
PRINCE ALBERT  NOT AVBL
REGINA         CLEAR     55  52  88 SE7       30.18F
YORKTON        CLEAR     55  52  88 S5        30.17S   C1F1C2F2C3F3C4F4C5F5C6F6C7F7C8F8C9F9CaFaCbFbCcFcCdFdCe!



USA.gov is the U.S. government's official web portal to all federal, state and local government web resources and services.